Date,SPY,VEU,BND
2010-01-01,0.326525243377719,0.4906060350560841,0.07194845776814796
2010-02-01,0.5325802228279672,0.6633968907794037,0.08176522182267987
2010-03-01,0.5008464353195483,0.6117400854797721,0.06768488356852842
2010-04-01,0.3863366179725698,0.3984497740592394,0.0741075514180689
2010-05-01,0.2057083304326368,0.08186921547715653,0.0789559413347809
2010-06-01,0.144073335974743,0.08999801926955997,0.08787843727158595
2010-07-01,0.1373606903587021,0.09148438469306996,0.08306413052136441
2010-08-01,0.04750753462778423,0.02409055582726261,0.08893986796064746
2010-09-01,0.1022340488551572,0.07178607174692853,0.07805370398388844
2010-10-01,0.166773082848936,0.1466303272280973,0.07852684761009576
2010-11-01,0.0990633057411281,0.04868267019964101,0.05738811731830173
2010-12-01,0.1505612700319436,0.1182024708873171,0.06198643087564126
2011-01-01,0.2217718021965107,0.1959375063035216,0.04942575792596493
2011-02-01,0.2259692071821564,0.2128160471528242,0.04909281315801284
2011-03-01,0.1557546366062377,0.1338720395877475,0.04987584237595621
2011-04-01,0.1711096807548229,0.2170769284394716,0.05396663933056622
2011-05-01,0.257924578736739,0.3226693020104581,0.05451728213997065
2011-06-01,0.30418287804775,0.3259484739064076,0.03552991414739037
2011-07-01,0.1963794757383659,0.1687681226671061,0.0433911474814932
2011-08-01,0.1838583680841934,0.1077951870050606,0.044423705744016
2011-09-01,0.01112346220115001,-0.1286459146741453,0.05141700475509636
2011-10-01,0.08021850569608846,-0.06217463161127057,0.04925260423862476
2011-11-01,0.07582846376859131,-0.04718696691086544,0.0558189390796231
2011-12-01,0.01895028329039672,-0.1402675825999622,0.07929651266580606
2012-01-01,0.04192615866764782,-0.08854618983011897,0.08519660836853848
2012-02-01,0.05065437506896808,-0.06577729001477473,0.0824616864550034
2012-03-01,0.08431702944424213,-0.07208685182276875,0.07855383354728862
2012-04-01,0.04676336597968267,-0.1359981557205122,0.07472487216892665
2012-05-01,-0.004942329758432451,-0.2094161995703597,0.07208136808051968
2012-06-01,0.05320576524909182,-0.148534565057405,0.07683877207527634
2012-07-01,0.08741818932435663,-0.1236169903174885,0.07264986271222829
2012-08-01,0.1795044422793339,-0.01715180747190914,0.05684416729176389
2012-09-01,0.2996275054088255,0.1691681446328797,0.05176711529674205
2012-10-01,0.1504121001296121,0.05670503659345605,0.04952178690684539
2012-11-01,0.1616438035555237,0.1041347357752958,0.05076993917854056
2012-12-01,0.1599032053328497,0.1890092005996786,0.02940940928064095
2013-01-01,0.1652414729761988,0.1396748301725623,0.01585965512948007
2013-02-01,0.1310164340697495,0.06719475801506669,0.02088613656331639
2013-03-01,0.1373801454667156,0.08355920543938034,0.0269061152951946
2013-04-01,0.1670221533453544,0.144941444949312,0.02600778825141936
2013-05-01,0.2709003851685519,0.2495459695457356,-0.003037046876005256
2013-06-01,0.2050391125810587,0.1306772543228376,-0.02011573409026179
2013-07-01,0.2524954156430872,0.1781111499747492,-0.02835754121080236
2013-08-01,0.1852368991637432,0.124925999314083,-0.03824533185975765
2013-09-01,0.1925137098190599,0.1694480599897517,-0.02929098798825314
2013-10-01,0.2708628775390409,0.1992175073068705,-0.01997583613286746
2013-11-01,0.3011640607188493,0.1819801991207144,-0.02343526900662529
2013-12-01,0.3230774789025033,0.1415422254016374,-0.02107489047231659
2014-01-01,0.214282005079782,0.04991246713685449,0.000999200528547961
2014-02-01,0.2535572191750504,0.1246096635783649,0.0003428477258515805
2014-03-01,0.2177182063106764,0.1228910495364199,-0.002142823774952562
2014-04-01,0.2030691815154348,0.09818925659475619,-0.004243366367975954
2014-05-01,0.2025950902718134,0.157534999692035,0.02600102636526036
2014-06-01,0.2440231928610839,0.2209415690261136,0.04406605047143319
2014-07-01,0.1669994717437837,0.1489201724487306,0.037220712091518
2014-08-01,0.2505604690039498,0.184044238270181,0.05814236739493617
2014-09-01,0.1954750776653735,0.04697625388073723,0.04050375161989117
2014-10-01,0.1694746967863459,0.01526078015286392,0.03911441543838268
2014-11-01,0.1670154047137296,0.008554316482728641,0.05084130312293222
2014-12-01,0.1346384003970271,-0.04532286461304325,0.05817841632979981
2015-01-01,0.1412466698806529,0.01319161426156934,0.06708425354445602
2015-02-01,0.1529138091344884,0.01529861489083473,0.04821805738081619
2015-03-01,0.1254703626497127,-0.003733663565912648,0.05572326972154862
2015-04-01,0.1286917167899897,0.02836787194009549,0.04393091648250591
2015-05-01,0.1172740808856103,-0.001479154669659088,0.02792140029917767
2015-06-01,0.07244017230346889,-0.04548057248614668,0.01563507609812809
2015-07-01,0.1116028071438144,-0.03400805606687307,0.02741939109703395
2015-08-01,0.004220773430023028,-0.1177422890511114,0.01332254036503855
2015-09-01,-0.007713128429615135,-0.1099191022614532,0.02739949026356303
2015-10-01,0.05191700991746284,-0.05233804642101725,0.020326364696861
2015-11-01,0.02753314972371701,-0.06179757487384063,0.007938247320763203
2015-12-01,0.0123426808551006,-0.04778626881255577,0.005590312096880989
2016-01-01,-0.00868634968951687,-0.1008965864773065,-0.006219966328679161
2016-02-01,-0.06221318563916478,-0.1713031881368836,0.01550589349636455
2016-03-01,0.01683811790195877,-0.0896254226060641,0.01892166130538198
2016-04-01,0.01090471883796629,-0.1124978514953591,0.02634755318710447
2016-05-01,0.01505264626518765,-0.1103090951237956,0.03139484273182513
2016-06-01,0.03969872738291058,-0.09129804020397458,0.0640627184266469
2016-07-01,0.0538133193677881,-0.04996264361993052,0.06110827543996056
2016-08-01,0.1235559285174193,0.03695697022030764,0.06038986308800798
2016-09-01,0.1530420992126258,0.09747156764416309,0.05307540901069352
2016-10-01,0.04422965670862333,0.01126269921408629,0.04287430362483469
2016-11-01,0.07875490113957384,0.002982998199428932,0.02004417996732588
2016-12-01,0.1199787271729678,0.04882349104323613,0.02521573244354847
2017-01-01,0.1997519806883006,0.1570350267354286,0.014929074750202
2017-02-01,0.247923116901658,0.2009263384823827,0.01256982065321166
2017-03-01,0.1707322316783826,0.1420348034234435,0.003308843603309741
2017-04-01,0.1777118047494461,0.1418314436441717,0.00723562724147242
2017-05-01,0.1743547335498947,0.1860950943436406,0.01446377820424205
2017-06-01,0.1777476443766466,0.2008902607326231,-0.005110420001735339
2017-07-01,0.1596609329084899,0.190874986467845,-0.004979767856945094
2017-08-01,0.1616535887348174,0.1902136778202534,0.008812388790035541
2017-09-01,0.1849913433105514,0.193368336626049,0.00293759175461461
2017-10-01,0.234314247181602,0.2376652471278915,0.01217860640320723
2017-11-01,0.2268464599747131,0.2725654378062397,0.03781076775749992
2017-12-01,0.2170538836187934,0.2739872888446457,0.03999437868719391
2018-01-01,0.2630442667194031,0.2930667153702584,0.02521284184948835
2018-02-01,0.1711050041606794,0.2091910244405424,0.008372855473641527
2018-03-01,0.1375826469587755,0.1689154834241098,0.01569611260351222
2018-04-01,0.1322231172655199,0.1515054210577291,-0.0009195441247894509
2018-05-01,0.1436068701611155,0.09513385107799266,-0.001198607206537528
2018-06-01,0.142898047974471,0.06648874428314322,0.0001708374814295421
2018-07-01,0.1613673779123399,0.06149144816538499,-0.006280736160392486
2018-08-01,0.1949513551530755,0.03004342243793134,-0.01020632127401311
2018-09-01,0.1783136816271245,0.01595595619330914,-0.01097276611948272
2018-10-01,0.07163511091738983,-0.0862216082344649,-0.01923768918621271
2018-11-01,0.05913955372560964,-0.07864937526540083,-0.01194343896069794
2018-12-01,-0.0456898036090676,-0.1418155206867702,0.001159126260596777
2019-01-01,-0.02427366995462366,-0.1266547518791659,0.02497365744559965
2019-02-01,0.04536556664312452,-0.06265303721362248,0.03477251298979356
2019-03-01,0.09428166344038513,-0.0490626917971182,0.04764265097379861
2019-04-01,0.1331295291153891,-0.02749208162235062,0.05639401168480984
2019-05-01,0.03569195897511435,-0.06273198539749936,0.06839889304300328
2019-06-01,0.1014275291681361,0.01398215994939078,0.07968476229682464
2019-07-01,0.07813914185554083,-0.03231323650526607,0.0816969688000091
2019-08-01,0.02729655679347864,-0.03323634540598741,0.1042651478946128
2019-09-01,0.04109560073029628,-0.01043356145502627,0.1040232609418938
2019-10-01,0.1431016802549976,0.1163279013043939,0.1170894987679956
2019-11-01,0.1629090896749439,0.1117022403287415,0.109565117248043
2019-12-01,0.3122386002911608,0.2182768954042069,0.08833889362851766
2020-01-01,0.2144717030936869,0.0939932564852497,0.09768722999812152
2020-02-01,0.08321349079877582,0.005317588244286631,0.1169979834252366
2020-03-01,-0.06890217617060757,-0.1552928060294591,0.08009890991947377
2020-04-01,0.008146661045538739,-0.1228509032778787,0.1101782935374491
2020-05-01,0.1281219791222885,-0.02790605803515467,0.09755743292349739
2020-06-01,0.07343216232354988,-0.04184559825286494,0.09131775112726714
2020-07-01,0.11971948576078,0.0140852216016274,0.1055300945876541
2020-08-01,0.218270013997605,0.0852060945982962,0.06561088665470205
2020-09-01,0.1502720477454611,0.03763926654409322,0.07063826299599385
2020-10-01,0.09733540858821566,-0.01761286223049774,0.06138040098090847
2020-11-01,0.1741961205324105,0.09480120611911058,0.07470716753283657
2020-12-01,0.183316246089533,0.1109815842297281,0.0771503172241117
2021-01-01,0.1717307016523462,0.1544756122436097,0.04713973444301889
2021-02-01,0.3078478704881231,0.2618827906080032,0.0140244101896112
2021-03-01,0.562311595858952,0.5127917004152516,0.01564154763554582
2021-04-01,0.459625978528331,0.4528656023913522,-0.003073222514806018
2021-05-01,0.4023922101249588,0.4318508572709638,-0.008171529534629629
2021-06-01,0.4088589380328909,0.3653135129693756,-0.005942295875368875
2021-07-01,0.3629833909079876,0.2950621505041313,-0.008739348181062034
2021-08-01,0.3119744088645582,0.259269316097684,-0.001209710470218783
2021-09-01,0.2994863518853312,0.2380812074028178,-0.01035857373920501
2021-10-01,0.4262238431931131,0.2987719624275587,-0.004121681347214912
2021-11-01,0.2759687555341133,0.103811351042518,-0.01405355409515585
2021-12-01,0.2872876842529282,0.08265475367534969,-0.01861108860648142
2022-01-01,0.2319486944666767,0.05271521780041954,-0.03052077754718319
2022-02-01,0.1632409626866091,-0.0003141624030761347,-0.02648668126101483
2022-03-01,0.1545514813583404,-0.02226134258480039,-0.04108737420154807
2022-04-01,0.000291694481218352,-0.1085067042860931,-0.08708733158789028
2022-05-01,-0.00399040710566767,-0.121739337618056,-0.0809270839156403
2022-06-01,-0.1061678755239017,-0.1851007798814744,-0.1042421158323134
2022-07-01,-0.04711936808942063,-0.1454016926613778,-0.09349834647614597
2022-08-01,-0.1124134142006097,-0.1951959812746726,-0.1171863843047709
2022-09-01,-0.1550894959416169,-0.2479046455997965,-0.1454528100556083
2022-10-01,-0.1463164818247547,-0.2430403542410104,-0.1559396686482464
2022-11-01,-0.09155968652536162,-0.1050948291719512,-0.1267793471568489
2022-12-01,-0.1817536103917416,-0.1557936051428637,-0.1311216644537592
2023-01-01,-0.08187308268616211,-0.05983124894504965,-0.08340953497975823
2023-02-01,-0.07773482446879454,-0.0726878667216988,-0.09757609016692959
2023-03-01,-0.0781904025828567,-0.04162291047043021,-0.04720792697141896
2023-04-01,0.0266428305004196,0.04410474554194121,-0.001957107391673762
2023-05-01,0.02905928191715268,-0.007753891348483921,-0.02168876596676272
2023-06-01,0.19421767766274,0.1232794087415614,-0.00737980299302754
2023-07-01,0.1293129371603119,0.1274623665450421,-0.03162210897392692
2023-08-01,0.158216944090644,0.1274916047226682,-0.01033164550956234
2023-09-01,0.2156601481022817,0.2061846331018609,0.007266094743225704
2023-10-01,0.09987682740971282,0.1291470479896599,0.003570589846073391
2023-11-01,0.1371289479206075,0.0800437153537934,0.01204567283907076
2023-12-01,0.2617578159187877,0.1584247481695635,0.05654382755334564
2024-01-01,0.2060103867956331,0.04809579341432291,0.02099486215910518
2024-02-01,0.3016759084271632,0.1309115567032801,0.03466220425067279
2024-03-01,0.2961836900972989,0.1364672455858695,0.01626253373260367
